#timestamp,LO_Frequency,Hit,StdDev 
1566975615.6,286046981.8,N
1566975635.5,286046979.0,N
1566975655.3,286046979.2,N
1566975675.2,286046974.8,N
1566975695.9,286046969.7,N
1566975715.7,286046969.2,N
1566975735.6,286046963.5,N
1566975755.4,286046961.6,N
1566975775.2,286046966.3,N
1566975795.1,286046966.1,N
1566975796.0,286046966.1,N
1566975815.8,286046968.6,N
1566975835.7,286046963.4,N
1566975855.5,286046965.2,N
1566975875.3,286046964.7,N
1566975895.2,286046966.9,N
1566975915.0,286046967.1,N
1566975915.9,286046967.1,N
1566975935.7,286046965.5,N
1566975955.6,286046961.8,Y
1566975975.4,286046981.1,P
1566975995.3,286046974.5,P
1566976015.1,286046968.0,P
1566976035.8,286046965.5,Y
1566976055.7,286046986.9,P
1566976075.5,286046989.6,N
1566976095.4,286046987.1,N
1566976115.2,286046987.9,N
1566976135.0,286046986.4,N
1566976135.9,286046986.4,N
1566976155.8,286046985.4,Y
1566976175.6,286047002.3,P
1566976195.4,286047001.9,N
1566976215.3,286047000.4,N
1566976235.1,286046998.1,N
1566976255.9,286046997.5,N
1566976275.7,286046997.8,N
1566976295.6,286046999.3,N
1566976315.4,286046999.2,N
1566976335.2,286046997.4,N
1566976355.1,286046997.9,N
1566976356.0,286046997.9,N
1566976375.8,286046993.3,N
1566976395.6,286046993.4,N
1566976415.5,286046993.3,N
1566976435.3,286046994.9,N
1566976455.2,286046999.6,N
1566976475.9,286047001.7,N
1566976495.7,286047005.9,N
1566976515.6,286047006.9,N
1566976535.4,286047006.6,N
1566976555.2,286047008.0,N
1566976575.1,286047005.5,N
1566976576.0,286047005.5,N
1566976595.8,286047001.9,N
1566976615.7,286046999.9,N
1566976635.5,286046998.9,N
1566976655.3,286046998.0,N
1566976675.2,286046995.3,N
1566976695.0,286046994.5,N
1566976695.9,286046994.5,N
1566976715.7,286046992.1,N
1566976735.6,286046989.2,N
1566976755.4,286046988.3,N
1566976775.3,286046983.0,Y
1566976795.1,286046982.3,P
1566976815.8,286046981.8,N
1566976835.7,286046979.0,N
1566976855.5,286046981.2,N
1566976875.4,286046981.8,N
1566976895.2,286046980.0,Y
1566976915.0,286046993.4,P
1566976915.9,286046993.4,N
1566976935.8,286046994.3,N
1566976955.6,286046990.1,N
1566976975.5,286046990.1,N
1566976995.3,286046991.5,N
1566977015.1,286046989.4,Y
1566977035.9,286046997.8,P
1566977055.7,286046997.8,N
1566977075.5,286046993.9,N
1566977095.4,286046989.8,Y
1566977115.2,286046990.5,P
1566977135.1,286046990.8,P
1566977136.0,286046990.8,P
1566977155.8,286046988.9,Y
1566977175.6,286046994.9,P
1566977195.5,286046989.3,P
1566977215.3,286046988.1,P
1566977235.2,286046988.6,Y
1566977255.9,286046999.4,P
1566977275.7,286046996.3,N
1566977295.6,286046992.3,N
1566977315.4,286046993.5,N
1566977335.2,286046997.4,N
1566977355.1,286046997.8,N
1566977356.0,286046997.8,N
1566977375.8,286047000.6,N
1566977395.7,286047002.2,N
1566977415.5,286047001.4,N
1566977435.3,286047002.9,N
1566977455.2,286047000.8,N
1566977475.9,286046998.0,N
1566977495.7,286046996.0,N
1566977515.6,286046997.0,N
1566977535.4,286046995.6,N
1566977555.3,286046992.1,N
1566977575.1,286046990.9,N
1566977576.0,286046990.9,N
1566977595.8,286046986.3,Y
1566977615.7,286046984.5,P
1566977635.5,286046983.3,N
1566977655.4,286046979.6,P
1566977675.2,286046974.4,Y
1566977695.0,286046986.3,P
1566977695.9,286046986.3,P
1566977715.8,286046980.6,P
1566977735.6,286046979.5,Y
1566977755.5,286047000.5,P
1566977775.3,286046996.5,N
1566977795.1,286046997.4,N
1566977815.9,286046998.8,N
1566977835.7,286047004.3,N
1566977855.5,286047003.3,N
1566977875.4,286047007.2,N
1566977895.2,286047001.8,N
1566977915.1,286047002.1,N
1566977916.0,286047002.1,N
1566977935.8,286046999.1,N
1566977955.6,286046995.7,N
1566977975.5,286046994.5,N
1566977995.3,286046993.5,N
1566978015.1,286046989.5,N
1566978035.9,286046989.6,N
1566978055.7,286046985.3,N
1566978075.6,286046987.5,N
1566978095.4,286046986.8,N
1566978115.2,286046980.6,N
1566978135.1,286046981.1,N
1566978136.0,286046981.1,N
1566978155.8,286046981.3,N
1566978175.6,286046977.7,N
1566978195.5,286046974.9,N
1566978215.3,286046970.3,Y
1566978235.2,286046976.6,P
1566978255.9,286046976.0,P
1566978275.7,286046975.3,P
1566978295.6,286046974.4,Y
1566978315.4,286046994.2,P
1566978335.2,286046990.1,N
1566978355.1,286046987.1,N
1566978356.0,286046987.1,N
1566978375.8,286046984.2,Y
1566978395.7,286046997.7,P
1566978415.5,286046993.5,N
1566978435.3,286046992.4,N
1566978455.2,286046992.2,N
1566978475.0,286046993.7,N
1566978475.9,286046993.7,N
1566978495.8,286046994.8,N
1566978515.6,286046994.8,N
1566978535.4,286046988.9,Y
1566978555.3,286046993.5,P
1566978575.1,286046992.2,P
1566978595.8,286046990.4,P
1566978615.7,286046989.6,Y
1566978635.5,286046990.1,P
1566978655.4,286046988.7,P
1566978675.2,286046987.2,P
1566978695.0,286046985.0,Y
1566978695.9,286046985.0,P
1566978715.8,286046990.4,P
1566978735.6,286046991.3,P
1566978755.5,286046987.7,Y
1566978775.3,286046996.8,P
1566978795.1,286046997.9,N
1566978815.9,286046993.7,N
1566978835.7,286046994.1,N
1566978855.6,286046995.1,N
1566978875.4,286046997.3,N
1566978895.2,286046995.4,N
1566978915.1,286046994.4,N
1566978916.0,286046994.4,N
1566978935.8,286046994.0,N
1566978955.6,286046994.6,N
1566978975.5,286046988.5,Y
1566978995.3,286046993.2,P
1566979015.2,286046988.9,P
1566979035.9,286046986.2,P
1566979055.7,286046984.9,Y
1566979075.6,286046994.1,P
1566979095.4,286046993.6,P
1566979115.3,286046994.4,P
1566979135.1,286046992.7,Y
1566979136.0,286046992.7,P
1566979155.8,286046996.6,P
1566979175.7,286047000.8,N
1566979195.5,286047000.6,N
